RH
56 50 50 51 46 49 47 37 32 38 61 60 67 61 56 64 61 59 65 72 72 69 67 74 75 78 82 80 83 84 79 81 72 69 56 54 68 78 81 73 46 38 42 51
48 53 52 53 54 57 55 50 50 56 65 61 58 57 63 67 69 66 73 80 78 75 73 74 78 83 84 84 83 86 81 79 80 87 81 79 88 92 90 94 88 68 57 51
52 50 49 61 63 66 65 64 62 67 67 63 61 58 63 78 78 77 71 80 87 78 80 79 78 83 82 83 80 79 74 84 91 89 91 90 90 94 91 93 98 91 82 76
54 54 59 62 67 63 66 66 64 68 65 65 67 68 62 73 78 77 71 82 79 86 86 84 87 87 86 82 82 78 79 82 86 90 89 88 91 88 89 91 95 97 94 88
58 64 64 66 67 66 64 74 73 75 73 66 67 67 65 62 64 76 82 84 81 88 92 91 90 90 89 88 87 78 82 82 80 82 85 89 91 88 83 85 91 97 95 93
67 72 66 74 69 66 64 85 79 73 74 68 65 68 68 68 64 66 76 71 74 75 74 80 86 92 94 97 93 94 92 92 87 91 93 94 92 80 70 78 89 93 98 97
70 77 74 67 64 69 72 73 77 72 68 66 65 65 64 68 69 68 68 66 61 60 68 80 83 87 85 82 97 96 98 94 93 94 93 93 87 77 71 67 69 72 77 78
66 73 73 63 65 72 73 72 72 72 67 65 59 64 64 61 64 62 60 61 60 61 60 66 72 80 81 85 86 83 79 89 96 95 97 92 85 83 79 74 75 70 69 68
54 58 55 55 62 70 66 65 68 65 64 57 50 54 57 60 58 56 55 59 58 58 58 58 61 65 74 79 82 87 89 92 89 91 93 93 92 91 86 80 77 78 74 74
57 51 50 56 59 63 66 62 60 56 55 50 47 48 48 55 57 55 53 56 60 59 60 60 64 69 67 67 72 76 81 86 87 88 86 90 92 92 90 88 87 83 79 77
64 57 52 45 52 60 58 56 48 49 46 44 41 43 50 56 54 56 57 58 66 60 59 62 64 66 70 70 68 70 73 76 77 82 83 87 88 87 91 89 87 86 86 85
62 51 49 49 51 62 55 49 40 34 39 41 40 41 48 56 56 53 53 54 53 51 55 58 61 64 66 68 68 70 70 71 73 70 76 77 83 87 92 91 92 91 91 87
57 60 60 62 59 59 53 45 34 31 34 34 35 37 42 51 55 53 51 54 54 54 58 56 62 62 60 62 64 65 62 64 66 65 64 64 66 68 77 83 87 87 93 86
50 49 54 57 52 54 34 36 35 34 34 34 33 34 35 39 44 53 58 61 60 60 60 59 59 59 60 60 61 63 64 63 63 60 63 65 64 66 65 67 67 65 66 63
47 51 48 40 38 40 37 33 38 37 38 37 35 36 33 35 40 48 56 59 56 54 58 64 68 69 67 66 67 66 64 65 68 71 71 69 68 66 69 70 71 67 60 61
46 43 43 42 43 42 47 36 38 37 39 37 37 35 30 30 32 34 36 41 46 48 40 40 44 48 57 60 61 64 65 65 68 69 67 68 70 69 70 72 74 77 77 76
35 34 35 34 37 42 43 35 35 39 38 35 41 43 39 35 37 43 49 48 49 50 53 50 48 43 38 36 36 40 44 47 50 52 52 53 54 56 56 57 60 64 71 78
28 28 35 36 37 34 32 29 28 32 34 36 36 43 46 43 36 31 27 26 30 39 44 44 49 50 48 50 45 39 36 32 30 29 32 37 39 42 44 46 47 49 49 45
28 34 36 35 34 33 32 30 29 28 34 42 43 47 48 48 44 41 37 36 36 47 47 44 40 46 68 70 67 63 57 52 50 46 42 40 36 34 33 30 30 31 30 34
31 34 39 37 34 30 28 28 29 29 32 37 41 44 46 45 49 50 49 48 46 40 41 41 38 39 46 63 62 61 58 57 55 47 55 59 54 53 51 46 42 41 40 39
36 38 38 36 34 33 33 33 33 34 38 39 36 36 36 37 37 37 40 39 43 44 42 41 42 44 43 48 53 53 56 57 57 58 59 59 58 55 55 49 43 39 41 41
38 39 39 39 38 36 37 41 44 46 49 56 55 52 52 49 47 47 49 48 44 46 46 47 48 48 50 56 53 56 60 65 59 56 60 58 54 55 55 49 46 42 42 46
36 36 37 39 39 41 43 50 55 53 57 59 62 60 57 54 52 55 54 49 49 54 56 54 52 49 46 41 40 42 42 42 41 40 41 49 51 61 59 51 50 56 55 51
42 45 43 41 40 39 42 49 56 60 58 62 60 54 62 68 58 54 53 56 60 58 54 48 41 38 36 35 35 35 34 36 37 40 44 43 44 46 47 48 68 62 61 61
48 46 40 37 38 40 42 45 52 61 67 71 68 74 74 70 56 57 63 60 56 51 45 41 39 40 44 42 35 30 28 29 34 36 37 36 40 44 49 54 59 63 72 75
53 54 46 38 36 42 58 69 72 75 79 82 87 84 83 77 69 62 56 52 46 40 40 41 44 42 41 42 40 37 34 28 26 29 32 36 41 46 50 51 50 52 56 63
50 50 62 70 69 70 78 78 71 72 79 87 88 90 89 74 63 58 51 43 41 42 43 46 49 50 48 46 49 41 36 33 30 31 31 33 33 35 31 31 31 31 30 29